Details From SKBO - Eldorado Intl
To MROC - San Jose Juan Santamaria Intl
Flight Number -
Tags Generated
Created
Modified
Stats Distance 678 nm / 1,255 km
Max Altitude 0 ft / 0 m
Waypoints 4
Social Downloads 5
Likes 0
Share VATSIM

Download

Looking for another format? Having issues loading an existing format? Contact us
Advertisement - Login to hide

Notes

Generated

Route

SKBO STG R1514 MROC

ID Type Via Altitude Latitude Longitude Leg Dist Tot Dist Heading (true) Name
O SKBO APT - 0 ft / 0 m 4.71050˚ -74.16917˚ - 0 nm - -
STG VOR - 0 ft / 0 m 8.08903˚ -80.93972˚ 452 nm 452 nm 297° / 296° -
R1514 FIX - 0 ft / 0 m 9.98900˚ -84.22186˚ 225 nm 677 nm 301° / 300° -
O MROC APT - 0 ft / 0 m 9.98900˚ -84.22186˚ 0 nm 677 nm 0° / 180° -

Altitude Profile

Advertisement - Login to hide

Weather


0- 5 10 15 20 25 30 35+ Temperature / ° C

Clouds and Precipitation
Forecast for 2018-05-22 00:00 UTC. Updated 4 hours ago

Ground ~20,000 ft ~40,000 ft Winds

SKBO

Details ICAO SKBO (BOG)
Name Bogota - El Dorado Intl
Region Colombia
Timezone America/Bogota (UTC-5.0)
Stats Elevation 8,361 ft / 2,548 m (AMSL)
Location 4.701594° -74.146946°
Runways 2
Magnetic Variation 7.329° W

METAR

SKBO 220300Z VRB02KT 9999 SCT020 SCT200 11/10 A3037

Decode

TAF

Not found

Departure Runways

ID Width Length Bearing (true) Bearing (mag) Surface Threshold Offset Overrun Length
13L 148 ft / 45 m 12,482 ft / 3,804 m 127.21° 134.54° Asphalt 0 ft / 0 m 0 ft / 0 m
13R 148 ft / 45 m 12,494 ft / 3,808 m 127.23° 134.56° Asphalt 0 ft / 0 m 200 ft / 61 m
31L 148 ft / 45 m 12,494 ft / 3,808 m 307.23° 314.56° Asphalt 0 ft / 0 m 190 ft / 58 m
31R 148 ft / 45 m 12,482 ft / 3,804 m 307.21° 314.54° Asphalt 0 ft / 0 m 0 ft / 0 m

MROC

Details ICAO MROC (SJO)
Name San Jose Juan Santamaria Intl
Region Costa Rica
Timezone America/Costa_Rica (UTC-6.0)
Stats Elevation 3,021 ft / 921 m (AMSL)
Location 9.993927° -84.208884°
Runways 1
Magnetic Variation 1.782° W

METAR

MROC 220300Z 00000KT 9999 -RA FEW020 BKN100 21/20 A3002 NOSIG

Decode

TAF

TAF MROC 212300Z 2200/2224 25005KT 9999 SCT030 TX28/2218Z TN19/2210Z TEMPO 2204/2209 VRB02KT 5000 RA BR FEW002 BKN010 TEMPO 2210/2215 07006KT TEMPO 2220/2224 -TSRA FEW020TCU BKN030

Decode

Destination Runways

ID Width Length Bearing (true) Bearing (mag) Surface Threshold Offset Overrun Length
07 151 ft / 46 m 9,994 ft / 3,046 m 68.91° 70.69° Asphalt 0 ft / 0 m 200 ft / 61 m
25 151 ft / 46 m 9,994 ft / 3,046 m 248.92° 250.70° Asphalt 1,969 ft / 600 m 200 ft / 61 m

Approach Navaids

Runway Type Ident Frequency Range Bearing (true) Bearing (mag) Slope Elevation
07 Localiser IOCO 109.50 MHz 18 nm / 33 km 68.89° 70.67° - 930 ft / 283 m (AMSL)
07 Glidescope IOCO 109.50 MHz 10 nm / 19 km 68.91° 70.70° 3.00° 930 ft / 283 m (AMSL)
07 DME IOCO 109.50 MHz 18 nm / 33 km - - - 930 ft / 283 m (AMSL)

Popular Alternatives